Flag for U.S.A. Weather past 2 weeks in Arden-Arcade, California, U.S.A.

Now
75 °F

Passing clouds.


Feels Like: 77 °F
Forecast: 58 / 87 °F
Wind: 8 mph from Southwest

Location: Mather Field

Current Time: Aug 29, 2015 at 11:28:21 PM

Latest Report: Aug 29, 2015 at 7:45 PM


Visibility: 10 mi

Pressure: 29.93 "Hg

Humidity: 34%

Dew point: 45 °F

Location of Arden-ArcadeLocation

Historic Weather in Arden-Arcade — Graph

°F

Arden-Arcade temperature yesterday

Maximum temperature yesterday: 99 °F (at 1:45 PM)
Minimum temperature yesterday: 63 °F (at 5:55 AM)
Average temperature yesterday: 81 °F

Past Weeks' High & Low Weather Summary

 TemperatureHumidityPressure
High104 °F (Aug 17, 3:45 PM)100% (Aug 21, 6:55 AM)30.02 "Hg (Aug 21, 6:55 AM)
Low54 °F (Aug 22, 3:45 AM)6% (Aug 16, 6:45 PM)29.74 "Hg (Aug 17, 4:49 PM)
Average76 °F48%29.89 "Hg
* Reported Aug 14 7:45 PM — Aug 29 7:45 PM, Arden-Arcade, Weather by CustomWeather, © 2015

Note: Actual official high and low records may vary slightly from our data, if they occured in-between our weather recording intervals... More about our weather records

Advertising

Arden-Arcade weather history for previous 24 hours

 ConditionsComfort  
Time TempWeatherWind HumidityBarometerVisibility
7:45 PM
Sat, Aug 29
75 °FPassing clouds.8 mph34%29.93 "Hg10 mi
6:45 PM81 °FPassing clouds.14 mph34%29.92 "Hg10 mi
5:45 PM84 °FPassing clouds.12 mph31%29.92 "Hg10 mi
4:45 PM84 °FPassing clouds.14 mph35%29.93 "Hg10 mi
3:45 PM84 °FScattered clouds.12 mph37%29.94 "Hg10 mi
2:45 PM82 °FScattered clouds.9 mph51%29.96 "Hg10 mi
1:45 PM82 °FScattered clouds.12 mph51%29.96 "Hg10 mi
12:44 PM82 °FScattered clouds.10 mph51%29.97 "Hg10 mi
11:45 AM79 °FScattered clouds.10 mph61%29.98 "Hg10 mi
10:45 AM75 °FPartly sunny.8 mph65%29.98 "Hg10 mi
9:45 AM73 °FPartly sunny.7 mph69%29.98 "Hg10 mi
8:55 AM72 °FPartly sunny.5 mph69%29.98 "Hg10 mi
7:45 AM68 °FPartly sunny.6 mph78%29.97 "Hg10 mi
6:50 AM64 °FPassing clouds.6 mph83%29.95 "Hg10 mi
5:55 AM64 °FPassing clouds.5 mph83%29.93 "Hg10 mi
4:50 AM64 °FPassing clouds.5 mph88%29.92 "Hg10 mi
3:45 AM68 °FPassing clouds.9 mph83%29.90 "Hg10 mi
2:55 AM68 °FPassing clouds.12 mph83%29.89 "Hg10 mi
Weather by CustomWeather, © 2015

See weather overviewHow to use our weather pages